Location: *
(48.7167°S, 176.9667°W)
Time: 07:58:55
(UTC+00:00)

Daily predictions for brighter satellites

Satellite Brightness Start Highest point End
(mag) Time Altitude Azimuth Time Altitude Azimuth Time Altitude Azimuth
SJ 16-02 1.3 12:03:17 47° NNW 12:04:33 86° WSW 12:09:02 10° SSE
Cosmos 2208 Rocket 4.0 12:00:15 10° SSW 12:05:40 88° WNW 12:08:08 34° NNE
Meteor 2-5 Rocket 3.7 12:05:38 10° SSW 12:11:30 90° E 12:14:11 33° N
Cosmos 1674 Rocket 3.7 12:08:30 10° S 12:13:02 72° E 12:14:39 38° NNE
ADEOS II 3.2 12:12:08 14° NE 12:16:15 41° ESE 12:21:13 10° S
Cosmos 1697 Rocket 2.9 12:10:50 10° SW 12:16:24 54° WNW 12:18:30 35° NNW
Spot 4 3.8 12:12:12 10° SSE 12:17:06 80° WSW 12:18:58 38° NNW
Cosmos 1908 3.2 12:20:56 52° NW 12:21:41 67° WSW 12:25:29 10° S
Cosmos 1703 3.4 12:19:11 10° S 12:23:05 67° E 12:24:12 42° NE
USA 81 4.0 12:25:49 36° NNW 12:28:04 80° W 12:33:26 10° S
Cosmos 1821 Rocket 4.3 12:21:55 10° SSW 12:28:06 58° W 12:31:07 31° NNW
GP-B 3.9 12:24:22 10° SSW 12:28:36 40° W 12:30:02 31° WNW
ARGOS Delta rocket 3.6 12:24:18 10° S 12:28:57 86° WSW 12:30:32 41° NNW
Resurs 1-4 Rocket 2.1 12:26:24 28° NNE 12:29:18 80° ESE 12:34:40 10° SSW
IDEFIX/ARIANE 42P 2.7 12:26:50 27° NNE 12:29:46 78° ESE 12:35:07 10° SSW
Cosmos 1470 4.1 12:29:47 25° WNW 12:30:55 30° WSW 12:34:26 10° S
Cosmos 773 Rocket 4.3 12:27:36 10° SSW 12:32:59 67° ESE 12:36:50 19° NE
ATLAS 3B R/B 2.5 12:28:43 10° SW 12:35:08 81° SE 12:41:27 10° NE
Cosmos 1892 4.5 12:33:01 10° SSE 12:36:10 26° ESE 12:38:32 14° ENE
Meteor 1-22 Rocket 4.2 12:35:05 32° NNW 12:37:29 64° WSW 12:42:50 10° S
SL-16 R/B 3.7 12:32:48 10° SSW 12:38:08 37° SE 12:43:23 10° ENE
AQUA 4.4 12:38:35 19° NE 12:41:54 54° ESE 12:46:37 10° S
CZ-2D R/B 2.2 12:39:11 28° NNE 12:42:13 85° WNW 12:47:50 10° SSW
Lacrosse 5 rocket 1.8 12:39:39 10° SW 12:43:14 52° SSE 12:46:53 10° ENE
COSMOS 2406 3.3 12:41:45 31° N 12:44:29 68° ENE 12:50:17 10° SSE
Cosmos 1825 4.1 12:41:43 10° SSE 12:44:44 24° ESE 12:47:25 11° NE
Cosmos 1975 Rocket 4.4 12:41:08 10° S 12:45:14 36° ESE 12:48:34 14° NE
Cosmos 1980 Rocket 2.2 12:40:03 10° SSW 12:45:43 64° WNW 12:48:42 28° N
ATLAS CENTAUR R/B 2.3 12:42:58 10° SSW 12:47:25 52° SE 12:51:43 10° ENE
Cosmos 2369 3.7 12:42:28 10° SSW 12:48:10 71° WNW 12:51:33 25° NNE
Cosmos 1340 2.4 12:49:31 50° N 12:50:24 87° E 12:54:02 10° SSE
Cosmos 1378 Rocket 4.2 12:47:29 10° SSW 12:51:38 42° W 12:52:54 33° NW
Cosmos 1908 Rocket 3.6 12:52:20 36° N 12:54:09 89° E 12:58:43 10° S
Cosmos 44 Rocket 4.0 12:53:58 28° NNE 12:55:41 37° ENE 12:59:59 10° SE
Cosmos 1733 Rocket 4.2 12:54:41 24° WNW 12:56:26 32° WSW 13:00:25 10° S
USA 306 3.4 12:57:20 29° NE 12:57:20 29° NE 13:00:29 10° ESE
Cosmos 1300 2.5 12:57:13 44° NNW 12:58:19 83° W 13:02:05 10° S
Cosmos 1455 4.1 12:58:47 14° NE 13:00:56 23° E 13:03:53 10° SE
Cosmos 1833 Rocket 3.9 12:58:35 14° WNW 13:02:50 35° SW 13:08:02 10° SSE
COSMOS 2441 4.4 13:00:41 23° NNE 13:03:46 87° ESE 13:08:43 10° SSW
Cosmos 1408 2.6 13:00:54 10° SSW 13:04:08 50° W 13:04:36 45° NW
Cosmos 158 Rocket 4.1 13:01:03 10° SSW 13:05:50 50° WNW 13:07:53 30° NNW
Meteor 2-10 Rocket 3.8 13:03:33 28° NNW 13:06:41 78° WSW 13:12:37 10° S
FENGYUN 3A 3.9 13:02:08 14° NNE 13:06:45 69° ESE 13:12:12 10° S
ATLAS 2AS CENTAUR R/B 3.0 13:02:09 17° WNW 13:07:23 62° SW 13:14:23 10° SE
ISS -2.3 13:17:10 24° NNE 13:17:22 24° NE 13:20:13 10° E
Cosmos 1633 2.1 13:14:43 10° SSW 13:17:47 62° W 13:18:24 48° NNW
Cosmos 1758 4.5 13:16:23 24° WNW 13:17:56 32° WSW 13:21:35 10° S
CSL-04 DEB 4.5 13:19:29 21° NNE 13:22:18 89° E 13:26:40 10° SSW
Cosmos 2278 3.7 13:18:29 10° SSW 13:24:14 82° WNW 13:29:58 10° NNE
NPP 4.4 13:22:23 24° NW 13:24:49 36° W 13:29:51 10° SSW
Cosmos 2082 Rocket 2.5 13:22:45 22° NW 13:26:25 61° WSW 13:32:09 10° SSE
Helios 1A Rocket 3.3 13:23:49 10° S 13:27:43 50° WSW 13:29:33 27° NW
Cosmos 1300 Rocket 3.6 13:27:30 25° N 13:30:08 83° E 13:34:41 10° S
Cosmos 2098 Rocket 3.2 13:30:36 27° WNW 13:31:18 30° WSW 13:34:09 10° S
USA 229 DEB 4.0 13:26:10 10° SW 13:33:01 68° SE 13:39:14 10° NE
USA 229 4.0 13:26:14 10° SW 13:33:05 67° SE 13:39:18 10° NE
CZ-2C R/B 3.9 13:28:44 10° NE 13:33:29 38° ESE 13:38:11 10° S
Cosmos 2237 4.3 13:27:56 10° SSW 13:33:45 84° ESE 13:39:31 10° NNE
CZ-2C R/B 3.4 13:28:26 10° NNE 13:34:01 77° ESE 13:39:54 10° SSW
USA 308 2.5 13:33:48 27° WSW 13:34:43 43° SSW 13:37:20 10° SE
Cosmos 1025 Rocket 3.5 13:33:34 10° SSW 13:37:50 45° W 13:40:04 24° NNW
Cosmos 1777 Rocket 4.1 13:36:00 23° NNW 13:39:18 72° WSW 13:44:35 10° SSE
ALOS 2.3 13:36:57 12° NNE 13:41:14 85° ESE 13:45:59 10° SSW
Cosmos 1867 4.2 13:37:57 10° SW 13:42:49 35° WNW 13:46:02 19° N
Cosmos 2360 Rocket 3.1 13:37:45 10° SSW 13:43:21 53° SE 13:48:54 10° NE
SJ 16-02 3.8 13:41:26 10° W 13:43:42 14° SW 13:45:59 10° SSW
NOSS 3-1 (A) 3.4 13:38:56 10° SW 13:45:17 54° WNW 13:50:28 10° NNE
NOSS 3-1 (C) 4.2 13:40:23 10° SW 13:45:38 28° WNW 13:48:04 20° NNW
Genesis I 3.8 13:42:34 10° SW 13:45:56 32° WNW 13:47:08 26° NNW
Cosmos 1727 Rocket 4.1 13:42:51 15° N 13:48:03 80° E 13:54:23 10° S
In-Cosmos 22 Rocket 4.5 13:42:14 10° S 13:48:11 77° ESE 13:53:58 10° NNE
Cosmos 1953 2.8 13:46:52 24° NW 13:48:56 47° WSW 13:52:51 10° S
Cosmos 2219 Rocket 4.0 13:44:35 10° SSW 13:49:41 33° SE 13:54:45 10° ENE
CZ-4 R/B 3.8 13:46:43 15° N 13:50:41 71° WNW 13:55:25 10° SSW
Meteor 1-11 4.5 13:44:53 10° S 13:50:48 77° ESE 13:56:34 10° NNE
Thor Agena Rocket 3.5 13:48:05 10° NNE 13:53:14 84° WNW 13:58:31 10° SSW
Sich 1 Rocket 4.5 13:50:48 11° NNE 13:55:04 49° E 13:59:35 10° SSE
ADEOS II 2.9 13:53:01 19° NW 13:55:58 33° W 14:00:45 10° SSW
Cosmos 1605 Rocket 4.5 13:52:51 10° SSW 13:58:37 43° W 14:03:04 16° NNW
USA 305 1.7 13:58:56 37° NNE 13:59:10 39° NE 14:01:03 10° ESE
Cosmos 304 Rocket 3.9 13:55:33 18° NNW 13:59:10 72° ENE 14:04:02 10° SSE
USA 281 3.7 13:52:45 10° NE 13:59:15 67° ESE 14:05:50 10° SSW
Cosmos 1328 4.4 13:56:04 10° SSW 13:59:46 39° W 14:02:00 20° NNW
Cosmos 1315 Rocket 3.9 13:56:16 10° SSW 13:59:46 29° W 14:01:40 20° NW
Cosmos 2322 Rocket 2.2 13:54:29 10° SSW 14:00:12 87° ESE 14:05:52 10° NNE
USA 307 1.4 14:04:20 33° NNW 14:05:07 57° NNE 14:07:22 10° ESE
Meteor 1-4 Rocket 2.2 14:04:16 10° SSW 14:07:31 67° W 14:10:05 15° N
Cosmos 2173 Rocket 4.0 14:01:46 10° S 14:08:00 87° E 14:14:09 10° N
PAYLOAD A 4.3 14:03:20 10° NNE 14:08:03 64° ESE 14:12:47 10° S
Cosmos 2333 Rocket 2.7 14:02:22 10° SSW 14:08:04 64° ESE 14:13:43 10° NE
Resurs 1-4 Rocket 3.8 14:07:27 13° WNW 14:09:45 17° W 14:13:04 10° SW
IDEFIX/ARIANE 42P 4.3 14:07:36 13° WNW 14:09:55 17° W 14:13:19 10° SW
Cosmos 1892 3.9 14:08:01 10° SW 14:11:05 25° W 14:12:47 18° NW
Envisat 3.2 14:12:16 10° NNE 14:17:22 79° ESE 14:22:33 10° SSW
Okean 2 Rocket 3.3 14:13:02 11° N 14:17:22 76° E 14:21:54 10° SSE
Geosat 4.0 14:12:40 10° NNE 14:17:43 80° WNW 14:22:49 10° SSW
Cosmos 2100 Rocket 4.0 14:12:40 10° SSW 14:18:54 76° W 14:25:06 10° N
Cosmos 1802 Rocket 4.2 14:12:47 10° S 14:19:17 81° E 14:25:38 10° NNE
Cosmos 1825 3.3 14:16:19 10° SSW 14:19:22 26° W 14:21:22 16° NW
Cosmos 371 Rocket 3.6 14:15:44 16° NW 14:19:39 61° WSW 14:24:34 10° SSE
Cosmos 921 Rocket 4.5 14:15:42 10° S 14:19:43 39° ESE 14:23:41 10° NE
Lacrosse 5 rocket 1.9 14:18:27 10° WSW 14:21:38 28° NW 14:24:52 10° NNE
SL-16 R/B 2.6 14:16:55 10° SW 14:22:21 45° WNW 14:27:44 10° N
Cosmos 1975 Rocket 4.3 14:19:15 10° SSW 14:22:52 25° W 14:25:38 14° NW
CZ-2D R/B 4.0 14:20:28 11° WNW 14:23:04 14° W 14:25:57 10° SW
Cosmos 923 Rocket 4.3 14:18:12 10° SSW 14:23:31 75° ESE 14:28:47 10° NNE
Cosmos 990 Rocket 4.0 14:20:14 14° NNW 14:24:47 79° WSW 14:30:07 10° SSE
ATLAS 3B R/B 3.6 14:20:18 10° WSW 14:25:04 23° WNW 14:29:48 10° NNW
ATLAS CENTAUR R/B 2.6 14:21:33 10° WSW 14:25:12 25° WNW 14:28:46 10° N
Cosmos 1898 Rocket 4.0 14:21:13 10° N 14:26:22 59° ENE 14:31:38 10° SSE
METEOR-M 4.2 14:22:17 10° N 14:27:39 70° WNW 14:33:05 10° SSW
Cosmos 1980 Rocket 4.2 14:27:55 10° W 14:28:33 10° W 14:29:10 10° W
YAOGAN 6 2.8 14:26:09 10° NNE 14:29:29 67° ESE 14:32:53 10° S
Cosmos 2061 Rocket 4.5 14:24:41 10° S 14:30:58 66° ESE 14:37:09 10° NNE
USA 306 2.8 14:29:09 10° WNW 14:32:35 61° SSW 14:36:20 10° ESE
Cosmos 1455 3.3 14:32:57 13° NW 14:35:39 28° WSW 14:38:56 10° S
IRS-1D 3.7 14:30:51 10° N 14:36:05 60° W 14:41:26 10° SSW
Cosmos 1484 Rocket 4.4 14:32:51 10° NE 14:36:17 36° ESE 14:39:44 10° S
Cosmos 1937 Rocket 4.1 14:32:00 10° N 14:37:00 53° ENE 14:42:03 10° SSE
Okean 1 Rocket 3.4 14:32:34 10° N 14:37:03 71° E 14:41:35 10° SSE
Cosmos 44 Rocket 4.2 14:32:45 10° WNW 14:37:09 39° SW 14:41:32 10° SSE
Cosmos 1725 Rocket 4.1 14:30:48 10° S 14:37:15 88° E 14:43:38 10° N
H-2A R/B 4.2 14:34:17 10° ENE 14:38:50 31° ESE 14:43:31 10° S
Cosmos 1680 Rocket 3.8 14:35:06 10° SSW 14:40:30 78° ESE 14:45:51 10° NNE
Cosmos 1536 Rocket 3.8 14:37:30 10° SSW 14:41:57 55° W 14:46:21 10° N
Cosmos 1242 Rocket 2.5 14:40:11 10° S 14:43:31 73° ESE 14:46:48 10° NNE
Cosmos 2333 4.2 14:39:12 10° SSW 14:44:53 84° WNW 14:50:33 10° NNE
COBE Rocket 4.1 14:46:03 10° N 14:50:35 49° W 14:55:11 10° SSW
Cosmos 2112 Rocket 4.2 14:46:12 10° SSW 14:51:37 82° ESE 14:57:00 10° NNE
MOZ.5/SAFIR/RUBIN 5/SL-8 4.2 14:47:26 10° S 14:52:02 50° WSW 14:56:33 10° NW
ISS -3.7 14:50:25 10° WNW 14:53:52 83° SSW 14:57:19 10° ESE
Cosmos 2151 Rocket 4.1 14:51:16 10° NNW 14:55:38 46° WSW 15:00:05 10° S
Cosmos 372 Rocket 4.1 14:53:33 10° NNW 14:58:41 81° ENE 15:03:52 10° SSE
ATLAS 2AS CENTAUR R/B 4.4 14:53:57 10° WSW 14:59:43 28° SSW 15:05:44 10° SE
SL-16 R/B 3.4 14:54:43 10° SSE 15:00:48 51° E 15:06:49 10° N
DNEPR-1 R/B 4.4 14:59:27 10° WNW 15:03:33 39° SW 15:07:27 10° SSE
IRIDIUM 104 4.4 14:58:35 10° S 15:03:53 67° W 15:09:05 10° N
Cosmos 1441 Rocket 3.6 15:01:11 10° NNW 15:04:57 50° WSW 15:08:47 10° S
Cosmos 1346 Rocket 2.9 15:02:06 10° N 15:05:58 78° E 15:09:55 10° SSE
